| time (UTC) | temp F | wind direction | speed knots | gust knots | rain 1hr in | rain 24hr in | rain mn in | humidity % | barometer mb |
| 20260505024540 | 61 | 213 | 8.7 | 13.0 | 0.00 | 0.00 | 0.00 | 55 | 950.2 |
| 20260505023044 | 61 | 186 | 7.8 | 13.9 | 0.00 | 0.00 | 0.00 | 54 | 950.2 |
| 20260505021542 | 61 | 190 | 7.8 | 11.3 | 0.00 | 0.00 | 0.00 | 55 | 950.3 |
| 20260505020039 | 61 | 196 | 6.1 | 10.4 | 0.00 | 0.00 | 0.00 | 54 | 950.3 |
| 20260505014557 | 61 | 207 | 5.2 | 9.6 | 0.00 | 0.00 | 0.00 | 53 | 950.3 |
| 20260505013040 | 62 | 225 | 6.1 | 9.6 | 0.00 | 0.00 | 0.00 | 53 | 950.1 |
| 20260505011536 | 62 | 196 | 6.1 | 12.2 | 0.00 | 0.00 | 0.00 | 52 | 950.1 |
| 20260505010036 | 62 | 200 | 6.1 | 9.6 | 0.00 | 0.00 | 0.00 | 52 | 950.0 |
| 20260505004539 | 62 | 165 | 7.0 | 11.3 | 0.00 | 0.00 | 0.00 | 51 | 949.8 |
| 20260505003033 | 63 | 190 | 5.2 | 11.3 | 0.00 | 0.00 | 0.00 | 50 | 949.7 |
| 20260505001533 | 63 | 191 | 6.1 | 9.6 | 0.00 | 0.00 | 0.00 | 49 | 949.7 |
| 20260505000039 | 64 | 215 | 5.2 | 13.9 | 0.00 | 0.00 | 0.00 | 48 | 949.7 |
| 20260504234533 | 65 | 188 | 10.4 | 18.2 | 0.00 | 0.00 | 0.00 | 47 | 949.4 |
| 20260504233032 | 66 | 189 | 6.1 | 14.8 | 0.00 | 0.00 | 0.00 | 45 | 949.2 |
| 20260504231531 | 67 | 179 | 5.2 | 11.3 | 0.00 | 0.00 | 0.00 | 44 | 949.3 |
| 20260504230030 | 67 | 172 | 7.8 | 13.9 | 0.00 | 0.00 | 0.00 | 43 | 949.2 |
| 20260504224529 | 69 | 180 | 6.1 | 14.8 | 0.00 | 0.00 | 0.00 | 38 | 949.3 |
| 20260504223028 | 69 | 239 | 8.7 | 13.9 | 0.00 | 0.00 | 0.00 | 37 | 949.2 |
| 20260504221529 | 69 | 226 | 8.7 | 14.8 | 0.00 | 0.00 | 0.00 | 38 | 949.1 |
| 20260504220027 | 70 | 209 | 7.0 | 13.9 | 0.00 | 0.00 | 0.00 | 38 | 949.2 |
| 20260504214525 | 70 | 226 | 7.8 | 13.9 | 0.00 | 0.00 | 0.00 | 38 | 949.2 |
| 20260504213044 | 70 | 246 | 11.3 | 17.4 | 0.00 | 0.00 | 0.00 | 38 | 949.2 |
| 20260504211523 | 69 | 207 | 10.4 | 16.5 | 0.00 | 0.00 | 0.00 | 40 | 949.3 |
| 20260504210026 | 69 | 229 | 7.8 | 20.0 | 0.00 | 0.00 | 0.00 | 39 | 949.4 |
| 20260504204522 | 70 | 244 | 9.6 | 13.9 | 0.00 | 0.00 | 0.00 | 40 | 949.5 |
| 20260504203020 | 70 | 221 | 8.7 | 17.4 | 0.00 | 0.00 | 0.00 | 40 | 949.7 |
| 20260504201522 | 69 | 229 | 8.7 | 14.8 | 0.00 | 0.00 | 0.00 | 42 | 949.9 |
| 20260504200018 | 69 | 219 | 7.8 | 15.6 | 0.00 | 0.00 | 0.00 | 43 | 950.1 |
| 20260504194514 | 68 | 208 | 8.7 | 15.6 | 0.00 | 0.00 | 0.00 | 43 | 950.2 |
| 20260504193008 | 67 | 224 | 8.7 | 16.5 | 0.00 | 0.00 | 0.00 | 45 | 950.3 |
| 20260504191507 | 67 | 211 | 9.6 | 17.4 | 0.00 | 0.00 | 0.00 | 44 | 950.4 |
| 20260504190007 | 66 | 225 | 8.7 | 15.6 | 0.00 | 0.00 | 0.00 | 45 | 950.6 |
| 20260504184511 | 67 | 242 | 10.4 | 16.5 | 0.00 | 0.00 | 0.00 | 45 | 950.7 |
| 20260504183006 | 67 | 234 | 12.2 | 19.1 | 0.00 | 0.00 | 0.00 | 45 | 950.8 |
| 20260504181503 | 67 | 262 | 11.3 | 19.1 | 0.00 | 0.00 | 0.00 | 44 | 950.7 |
| 20260504180100 | 67 | 227 | 13.0 | 20.0 | 0.00 | 0.00 | 0.00 | 44 | 950.9 |
| 20260504174612 | 66 | 222 | 8.7 | 17.4 | 0.00 | 0.00 | 0.00 | 46 | 951.0 |
| 20260504173059 | 67 | 215 | 11.3 | 18.2 | 0.00 | 0.00 | 0.00 | 46 | 951.0 |
| 20260504171553 | 65 | 213 | 10.4 | 17.4 | 0.00 | 0.00 | 0.00 | 48 | 951.1 |
| 20260504081526 | 44 | 222 | 6.1 | 10.4 | 0.00 | 0.00 | 0.00 | 62 | 953.2 |
| 20260504050002 | 47 | 221 | 6.1 | 12.2 | 0.00 | 0.00 | 0.00 | 57 | 953.4 |
| 20260504044501 | 47 | 209 | 5.2 | 9.6 | 0.00 | 0.00 | 0.00 | 57 | 953.3 |
| 20260504043101 | 48 | 205 | 3.5 | 7.0 | 0.00 | 0.00 | 0.00 | 57 | 953.3 |
| 20260504041554 | 49 | 213 | 3.5 | 7.0 | 0.00 | 0.00 | 0.00 | 56 | 953.6 |
| 20260504040052 | 49 | 240 | 3.5 | 7.8 | 0.00 | 0.00 | 0.00 | 56 | 953.4 |
| 20260504034554 | 50 | 229 | 3.5 | 6.1 | 0.00 | 0.00 | 0.00 | 55 | 953.4 |
| 20260504033055 | 50 | 255 | 6.1 | 12.2 | 0.00 | 0.00 | 0.00 | 54 | 953.4 |
| 20260504031550 | 50 | 300 | 4.3 | 8.7 | 0.00 | 0.00 | 0.00 | 54 | 953.6 |
| 20260504030050 | 50 | 263 | 7.0 | 12.2 | 0.00 | 0.00 | 0.00 | 55 | 953.7 |